Вернуться в каталог

SL-3 R/B

АктивенPO
NORAD 11608·ROCKET BODY·🇷🇺 Russia

Запущен Oct 31, 1979 с Plesetsk Cosmodrome

Loading…

Ближайшие Пролёты (ближайшие 24 часа)

TLE

СвежийSource: Space-Track

Эпоха: Sep 14, 2026, 12:29 UTC

1 11608U 79095B   26257.52054993  .00000291  00000-0  16581-3 0  9991
2 11608  81.2161 173.6826 0054438  36.0645 324.4176 14.06574389404370

Отслеживайте SL-3 R/B в реальном времени с AllMySat

Download on the App Store